Погода в Лаутербруннене

Швейцария     46°35′43″N   7°54′26″E
темп.,
°C
ветер,
м/с
пор.,
м/с
влажн.,
%
обл.,
%
осадки,
мм/ч
давл.,
гПа
погр.,
м
18 апреля, вс
вс1823:00−13всв129696 0.3 102413
02:00−14в119030 0.3 102310
05:00−14вюв01857 0.0 102210
08:00−11ссв11856 0.0 102123
11:00−7сз217794 0.0 1017613
14:00−6сз2291100 0.9 1017486
17:00−5ссз3393100 2.0 1017530
20:00−9с329577 2.9 102039
19 апреля, пн
пн1923:00−13ссв229682 0.1 102514
02:00−14св229227 0.1 102611
05:00−15ссв128214 0.0 102511
08:00−11с128444 0.0 102354
11:00−7сз217648 0.0 1018513
14:00−5зсз218396 0.2 1017539
17:00−5сз3290100 0.8 1016531
20:00−8с229378 1.3 102044
20 апреля, вт
вт2023:00−12св128373 0.0 102411
02:00−12в026396 0.0 102210
05:00−12всв127368 0.0 102110
08:00−9всв118127 0.0 102021
11:00−5зюз016628 0.0 1016600
14:00−3з228688 0.3 1015567
17:00−3сз218069 0.5 1014599
20:00−6с118639 0.7 101741
21 апреля, ср
ср2123:00−9вюв128517 0.0 102010
02:00−9юв129040 0.0 102111
05:00−9юв12805 0.0 102011
08:00−6юв11847 0.0 101924
11:00−3ююз017678 0.1 1017534
14:00−2з117782 1.9 1016493
17:00−1зсз117781 2.3 1015409
20:00−4ссв019180 3.4 101810
22 апреля, чт
чт2223:00−8вюв129213 0.0 102211
02:00−9ююз11895 0.0 102210
05:00−8ссз119161 0.0 102223
08:00−4ссз128670 0.1 1021333
11:00−2ссз228378 0.1 1020643
14:00−1ссз228670 0.4 1019607
17:00−1ссз338379 0.5 1019717
20:00−3ссз339377 0.8 1021146